Location: Vancouver
(49.2500°N, 123.1330°W)
Time: 02:44:20
(UTC-07:00)

Cosmos 676 Rocket - Visible Passes

Search period start: 20 October 2014 00:00
Search period end: 30 October 2014 00:00
Orbit: 755 x 786 km, 74.0° (Epoch: 19 October)

Date Brightness Start Highest point End Pass type
(mag) Time Alt. Az. Time Alt. Az. Time Alt. Az.
20 Oct 6.3 20:40:48 10° NNE 20:41:45 12° NNE 20:41:45 12° NNE visible
20 Oct 6.6 22:21:16 10° NNW 22:22:03 14° NNW 22:22:03 14° NNW visible
21 Oct 6.3 21:45:08 10° N 21:46:25 17° N 21:46:25 17° N visible
22 Oct 6.1 21:09:08 10° N 21:10:48 17° N 21:10:48 17° N visible
22 Oct 6.9 22:50:49 10° NNW 22:51:07 12° NNW 22:51:07 12° NNW visible
23 Oct 6.0 20:33:16 10° N 20:35:12 16° NNE 20:35:12 16° NNE visible
23 Oct 6.5 22:14:29 10° NNW 22:15:31 16° NNW 22:15:31 16° NNW visible
24 Oct 6.0 19:57:43 10° NNE 19:59:37 13° NNE 19:59:37 13° NNE visible
24 Oct 6.1 21:38:15 10° NNW 21:39:56 20° N 21:39:56 20° N visible
25 Oct 5.7 21:02:07 10° N 21:04:23 23° N 21:04:23 23° N visible
25 Oct 6.9 22:44:19 10° NW 22:44:42 12° NW 22:44:42 12° NW visible
26 Oct 5.6 20:26:06 10° N 20:28:51 22° NNE 20:28:51 22° NNE visible
26 Oct 6.4 22:07:49 10° NNW 22:09:10 18° NNW 22:09:10 18° NNW visible
27 Oct 5.6 19:50:13 10° N 19:53:22 18° NE 19:53:22 18° NE visible
27 Oct 5.8 21:31:28 10° NNW 21:33:41 26° NNW 21:33:41 26° NNW visible
28 Oct 5.8 19:14:38 10° NNE 19:17:10 13° NE 19:17:54 13° NE visible
28 Oct 5.3 20:55:14 10° NNW 20:58:14 33° N 20:58:14 33° N visible
28 Oct 6.9 22:38:04 10° NW 22:38:33 12° NW 22:38:33 12° NW visible
29 Oct 5.0 20:19:06 10° NNW 20:22:49 34° NNE 20:22:49 34° NNE visible
29 Oct 6.3 22:01:19 10° NW 22:03:09 20° NW 22:03:09 20° NW visible
